Russell, KS

5:38 PM CDT on May 25, 2017 (GMT -0500)
Russell Municipal

Weather History for KRSL - May, 2013

Change the Weather History Date:

Tuesday, May 28, 2013

  Actual Average Record
Temperature  
Mean Temperature 78 °F -  
Max Temperature 93 °F 79 °F 98 °F (2006)
Min Temperature 62 °F 56 °F 42 °F (1992)
Cooling Degree Days 12    
Growing Degree Days 28 (Base 50)    
Moisture  
Dew Point 63 °F    
Average Humidity 76    
Maximum Humidity 97    
Minimum Humidity 24    
Precipitation  
Precipitation 0.00 in - - ()
Sea Level Pressure  
Sea Level Pressure 29.59 in    
Wind  
Wind Speed 10 mph (East)    
Max Wind Speed 30 mph    
Max Gust Speed 40 mph    
Visibility 8 miles    
Events Fog    
Averages and records for this station are not official NWS values.
T = Trace of Precipitation, MM = Missing Value Source: NWS Daily Summary

Daily Weather History Graph

Daily Weather History Graph

Search for Another Location

Airport or City:

Trip Planner

Search our weather history database for the weather conditions in past years. The results will help you decide how hot, cold, wet, or windy it might be!

Date:

Astronomy

May. 28, 2013 Rise Set
Actual Time 6:13 AM CDT 8:52 PM CDT
Civil Twilight 5:42 AM CDT 9:23 PM CDT
Nautical Twilight 5:03 AM CDT 10:02 PM CDT
Astronomical Twilight 4:20 AM CDT 10:45 PM CDT
Moon No Moon Rise 10:02 AM CDT (5/28)
Length of Visible Light 15h 40m
Length of Day
14h 38m
Waning Gibbous, 82% of the Moon is Illuminated
May 28
Waning Gibbous
May 31
Last Quarter
Jun 8
New
Jun 16
First Quarter
Jun 23
Full

Hourly Weather History & Observations

Time (CDT) Temp. Heat Index Dew Point Humidity Pressure Visibility Wind Dir Wind Speed Gust Speed Precip Events Conditions
12:53 AM 70.0 °F - 66.0 °F 87% 29.57 in 10.0 mi SSE 9.2 mph - N/A   Clear
1:53 AM 68.0 °F - 64.9 °F 90% 29.56 in 9.0 mi Calm Calm - N/A   Clear
2:53 AM 66.0 °F - 64.0 °F 93% 29.56 in 8.0 mi NE 8.1 mph - N/A   Clear
3:53 AM 64.9 °F - 63.0 °F 93% 29.56 in 5.0 mi ENE 5.8 mph - N/A   Clear
4:53 AM 63.0 °F - 61.0 °F 93% 29.58 in 8.0 mi NNE 6.9 mph - N/A   Clear
5:25 AM 62.6 °F - 60.8 °F 94% 29.64 in 7.0 mi NNE 8.1 mph - N/A   Partly Cloudy
5:53 AM 63.0 °F - 61.0 °F 93% 29.57 in 6.0 mi NE 13.8 mph - N/A   Clear
6:03 AM 62.6 °F - 60.8 °F 94% 29.66 in 6.0 mi NNE 6.9 mph - N/A   Partly Cloudy
6:23 AM 62.6 °F - 60.8 °F 94% 29.65 in 5.0 mi NE 8.1 mph - N/A   Mostly Cloudy
6:35 AM 62.6 °F - 60.8 °F 94% 29.65 in 1.8 mi NE 10.4 mph - N/A   Overcast
6:45 AM 62.6 °F - 60.8 °F 94% 29.66 in 0.2 mi NE 9.2 mph - N/A Fog Fog
6:53 AM 62.1 °F - 61.0 °F 96% 29.61 in 0.2 mi NE 10.4 mph - N/A Fog Fog
7:53 AM 64.9 °F - 64.0 °F 97% 29.63 in 0.2 mi NE 10.4 mph - N/A Fog Fog
8:53 AM 66.9 °F - 66.0 °F 97% 29.61 in 1.2 mi ENE 12.7 mph - N/A   Overcast
9:06 AM 68.0 °F - 66.2 °F 94% 29.64 in 2.5 mi East 16.1 mph - N/A   Overcast
9:16 AM 68.0 °F - 66.2 °F 94% 29.64 in 4.0 mi East 13.8 mph - N/A   Overcast
9:36 AM 68.0 °F - 66.2 °F 94% 29.63 in 5.0 mi East 15.0 mph - N/A   Overcast
9:53 AM 69.1 °F - 68.0 °F 96% 29.58 in 7.0 mi East 16.1 mph - N/A   Overcast
10:03 AM 69.8 °F - 68.0 °F 94% 29.63 in 8.0 mi East 13.8 mph - N/A   Overcast
10:38 AM 71.6 °F - 68.0 °F 88% 29.65 in 10.0 mi ESE 10.4 mph - N/A   Overcast
10:53 AM 72.0 °F - 68.0 °F 87% 29.60 in 10.0 mi ESE 10.4 mph - N/A   Overcast
11:32 AM 73.4 °F - 68.0 °F 83% 29.65 in 10.0 mi ESE 6.9 mph - N/A   Overcast
11:53 AM 73.9 °F - 69.1 °F 85% 29.61 in 10.0 mi ESE 5.8 mph - N/A   Overcast
12:24 PM 78.8 °F - 69.8 °F 74% 29.66 in 10.0 mi ESE 5.8 mph - N/A   Mostly Cloudy
12:53 PM 79.0 °F - 68.0 °F 69% 29.60 in 10.0 mi Calm Calm - N/A   Mostly Cloudy
1:53 PM 82.9 °F 85.8 °F 68.0 °F 60% 29.58 in 10.0 mi Variable 3.5 mph - N/A   Clear
2:53 PM 86.0 °F 89.4 °F 68.0 °F 55% 29.56 in 10.0 mi NNE 5.8 mph - N/A   Clear
3:53 PM 88.0 °F 91.4 °F 68.0 °F 51% 29.55 in 10.0 mi NE 9.2 mph 18.4 mph N/A   Clear
4:53 PM 90.0 °F 91.3 °F 64.0 °F 42% 29.52 in 10.0 mi East 4.6 mph - N/A   Clear
5:33 PM 93.2 °F - 51.8 °F 24% 29.55 in 10.0 mi SSW 19.6 mph 27.6 mph N/A   Clear
5:53 PM 91.9 °F 89.5 °F 53.1 °F 27% 29.48 in 10.0 mi SW 13.8 mph 21.9 mph N/A   Clear
6:53 PM 89.1 °F - 52.0 °F 28% 29.49 in 10.0 mi South 15.0 mph 20.7 mph N/A   Clear
7:07 PM 87.8 °F 87.6 °F 60.8 °F 40% 29.53 in 10.0 mi South 21.9 mph 31.1 mph N/A   Scattered Clouds
7:53 PM 82.9 °F 84.4 °F 64.0 °F 53% 29.50 in 10.0 mi South 24.2 mph 32.2 mph N/A   Scattered Clouds
8:53 PM 75.9 °F - 66.0 °F 71% 29.55 in 10.0 mi SSE 29.9 mph 40.3 mph N/A   Clear
9:53 PM 75.9 °F - 62.1 °F 62% 29.57 in 10.0 mi SSE 19.6 mph 40.3 mph N/A   Clear
10:53 PM 73.0 °F - 60.1 °F 64% 29.56 in 10.0 mi SSE 8.1 mph - N/A   Clear
11:53 PM 71.1 °F - 54.0 °F 55% 29.53 in 10.0 mi Variable 4.6 mph - N/A   Clear